OneWeb SL0189

operational
NORAD ID: 48217 Int'l Des: 2021-031 Owner: ONEWEBN Country: UK Constellation: oneweb
LEOCIRCULARPOLARONEWEB_TYPE

About OneWeb SL0189

Description loading...

Live Position

Loading 3D Globe...

Upcoming Passes

Altitude History

Altitude vs Time

uPlot chart will show altitude changes over time

Two-Line Element Set

1 48217U 21031H 25257.54062634 .00000288 00000-0 74179-3 0 9999
2 48217 87.9079 344.5779 0001794 113.4571 246.6747 13.14505049212010
Epoch: Sep 14, 2025 • Age: 20 hours

Current Status

Altitude 1215.4 km
Velocity 7.25 km/s
Sub-Earth Point -23.29°S, 145.35°W
Launch Date Apr 25, 2021
Age 4.3 years
Type internet

Technical Details

Classification Payload
Mass 148.00 kg
Dry Mass 140.00 kg
Total Mass 148.00 kg
Length 1.30 m
Diameter 1.00 m
Span 5.00 m
Shape Trapezoid+2 pan
Manufacturer ONEWUS
Bus Type ARROW
Phase Status In Orbit
Owner/State ONEWEBN/UK

Large Constellations

Loading constellations...